Time,TemperatureF,DewpointF,PressureIn,WindDirection,WindDirectionDegrees,WindSpeedMPH,WindSpeedGustMPH,Humidity,HourlyPrecipIn,Conditions,Clouds,dailyrainin,SoftwareType,DateUTC
2013-05-11 00:00:00,42.1,31.9,29.90,North,353,3.0,6.0,67,0.00,,,-99.99,Weather View 32 v60,2013-05-11 04:00:00,
2013-05-11 00:05:00,42.1,31.9,29.90,North,353,0.0,6.0,67,0.00,,,-99.99,Weather View 32 v60,2013-05-11 04:05:00,
2013-05-11 00:10:00,42.1,31.9,29.90,North,7,0.0,6.0,67,0.00,,,-99.99,Weather View 32 v60,2013-05-11 04:10:00,
2013-05-11 00:15:00,42.1,31.9,29.90,North,357,0.0,6.0,67,0.00,,,-99.99,Weather View 32 v60,2013-05-11 04:15:00,
2013-05-11 00:20:00,41.9,31.7,29.90,NNW,341,0.0,6.0,67,0.00,,,-99.99,Weather View 32 v60,2013-05-11 04:20:00,
2013-05-11 00:30:00,41.9,31.7,29.90,North,353,0.0,4.0,67,0.00,,,-99.99,Weather View 32 v60,2013-05-11 04:30:00,
2013-05-11 00:35:00,41.9,31.7,29.90,North,353,0.0,4.0,67,0.00,,,-99.99,Weather View 32 v60,2013-05-11 04:35:00,
2013-05-11 00:40:00,41.9,31.7,29.90,North,353,0.0,4.0,67,0.00,,,-99.99,Weather View 32 v60,2013-05-11 04:40:00,
2013-05-11 00:45:00,41.9,31.7,29.90,North,353,0.0,4.0,67,0.00,,,-99.99,Weather View 32 v60,2013-05-11 04:45:00,
2013-05-11 00:50:00,41.9,31.7,29.87,North,353,0.0,4.0,67,0.00,,,-99.99,Weather View 32 v60,2013-05-11 04:50:00,
2013-05-11 00:55:00,41.9,31.7,29.87,North,353,0.0,4.0,67,0.00,,,-99.99,Weather View 32 v60,2013-05-11 04:55:00,
2013-05-11 01:00:00,41.9,31.7,29.87,North,0,0.0,4.0,67,0.00,,,-99.99,Weather View 32 v60,2013-05-11 05:00:00,
2013-05-11 01:05:00,41.9,31.7,29.87,North,0,0.0,4.0,67,0.00,,,-99.99,Weather View 32 v60,2013-05-11 05:05:00,
2013-05-11 01:10:00,41.7,31.6,29.87,North,0,0.0,4.0,67,0.00,,,-99.99,Weather View 32 v60,2013-05-11 05:10:00,
2013-05-11 01:15:00,41.7,31.6,29.87,North,0,3.0,4.0,67,0.00,,,-99.99,Weather View 32 v60,2013-05-11 05:15:00,
2013-05-11 01:20:00,41.7,31.6,29.87,North,0,0.0,4.0,67,0.00,,,-99.99,Weather View 32 v60,2013-05-11 05:20:00,
2013-05-11 01:25:00,41.7,31.6,29.87,North,0,0.0,4.0,67,0.00,,,-99.99,Weather View 32 v60,2013-05-11 05:25:00,
2013-05-11 01:30:00,41.7,31.6,29.87,North,0,0.0,3.0,67,0.00,,,-99.99,Weather View 32 v60,2013-05-11 05:30:00,
2013-05-11 01:35:00,41.7,31.6,29.87,North,0,3.0,4.0,67,0.00,,,-99.99,Weather View 32 v60,2013-05-11 05:35:00,
2013-05-11 01:40:00,41.7,31.6,29.87,North,357,0.0,4.0,67,0.00,,,-99.99,Weather View 32 v60,2013-05-11 05:40:00,
2013-05-11 01:45:00,41.7,31.6,29.87,North,357,0.0,4.0,67,0.00,,,-99.99,Weather View 32 v60,2013-05-11 05:45:00,
2013-05-11 01:50:00,41.7,31.6,29.87,North,357,0.0,4.0,67,0.00,,,-99.99,Weather View 32 v60,2013-05-11 05:50:00,
2013-05-11 01:55:00,41.7,31.6,29.87,North,357,0.0,4.0,67,0.00,,,-99.99,Weather View 32 v60,2013-05-11 05:55:00,
2013-05-11 02:00:00,41.7,31.6,29.87,North,357,0.0,4.0,67,0.00,,,-99.99,Weather View 32 v60,2013-05-11 06:00:00,
2013-05-11 02:05:00,41.7,31.6,29.87,North,357,0.0,4.0,67,0.00,,,-99.99,Weather View 32 v60,2013-05-11 06:05:00,
2013-05-11 02:10:00,41.7,31.6,29.87,North,357,0.0,4.0,67,0.00,,,-99.99,Weather View 32 v60,2013-05-11 06:10:00,
2013-05-11 02:15:00,41.7,31.6,29.87,North,357,0.0,4.0,67,0.00,,,-99.99,Weather View 32 v60,2013-05-11 06:15:00,
2013-05-11 02:20:00,41.7,31.6,29.87,North,357,0.0,4.0,67,0.00,,,-99.99,Weather View 32 v60,2013-05-11 06:20:00,
2013-05-11 02:25:00,41.7,31.6,29.87,North,357,0.0,4.0,67,0.00,,,-99.99,Weather View 32 v60,2013-05-11 06:25:00,
2013-05-11 02:35:00,41.5,31.4,29.87,WNW,297,5.0,5.0,67,0.00,,,-99.99,Weather View 32 v60,2013-05-11 06:35:00,
2013-05-11 02:40:00,41.5,31.4,29.87,WNW,298,0.0,5.0,67,0.00,,,-99.99,Weather View 32 v60,2013-05-11 06:40:00,
2013-05-11 02:45:00,41.5,31.4,29.87,WNW,298,0.0,5.0,67,0.00,,,-99.99,Weather View 32 v60,2013-05-11 06:45:00,
2013-05-11 02:50:00,41.5,31.4,29.87,NW,314,4.0,5.0,67,0.00,,,-99.99,Weather View 32 v60,2013-05-11 06:50:00,
2013-05-11 02:55:00,41.5,31.4,29.87,NW,312,3.0,8.0,67,0.00,,,-99.99,Weather View 32 v60,2013-05-11 06:55:00,
2013-05-11 03:00:00,41.5,31.4,29.87,WNW,303,4.0,8.0,67,0.00,,,-99.99,Weather View 32 v60,2013-05-11 07:00:00,
2013-05-11 03:05:00,41.5,31.4,29.87,WNW,302,6.0,8.0,67,0.00,,,-99.99,Weather View 32 v60,2013-05-11 07:05:00,
2013-05-11 03:10:00,41.5,31.4,29.87,NW,320,2.0,8.0,67,0.00,,,-99.99,Weather View 32 v60,2013-05-11 07:10:00,
2013-05-11 03:15:00,41.5,31.4,29.87,NW,320,3.0,8.0,67,0.00,,,-99.99,Weather View 32 v60,2013-05-11 07:15:00,
2013-05-11 03:20:00,41.5,31.4,29.87,WNW,294,5.0,8.0,67,0.00,,,-99.99,Weather View 32 v60,2013-05-11 07:20:00,
2013-05-11 03:25:00,41.5,31.0,29.87,NW,308,5.0,8.0,66,0.00,,,-99.99,Weather View 32 v60,2013-05-11 07:25:00,
2013-05-11 03:30:00,41.5,31.0,29.87,WNW,299,2.0,8.0,66,0.00,,,-99.99,Weather View 32 v60,2013-05-11 07:30:00,
2013-05-11 03:35:00,41.5,31.0,29.87,WNW,294,6.0,8.0,66,0.00,,,-99.99,Weather View 32 v60,2013-05-11 07:35:00,
2013-05-11 03:40:00,41.5,31.0,29.87,WNW,302,4.0,8.0,66,0.00,,,-99.99,Weather View 32 v60,2013-05-11 07:40:00,
2013-05-11 03:45:00,41.5,31.0,29.87,WNW,294,4.0,8.0,66,0.00,,,-99.99,Weather View 32 v60,2013-05-11 07:45:00,
2013-05-11 03:50:00,41.4,30.8,29.87,WNW,300,6.0,8.0,66,0.00,,,-99.99,Weather View 32 v60,2013-05-11 07:50:00,
2013-05-11 03:55:00,41.4,30.8,29.87,NW,304,6.0,8.0,66,0.00,,,-99.99,Weather View 32 v60,2013-05-11 07:55:00,
2013-05-11 04:00:00,41.2,30.7,29.87,NW,319,0.0,7.0,66,0.00,,,-99.99,Weather View 32 v60,2013-05-11 08:00:00,
2013-05-11 04:05:00,41.2,30.3,29.87,NW,306,2.0,7.0,65,0.00,,,-99.99,Weather View 32 v60,2013-05-11 08:05:00,
2013-05-11 04:10:00,41.2,30.3,29.87,NW,306,0.0,7.0,65,0.00,,,-99.99,Weather View 32 v60,2013-05-11 08:10:00,
2013-05-11 04:15:00,41.2,30.3,29.87,NW,319,0.0,7.0,65,0.00,,,-99.99,Weather View 32 v60,2013-05-11 08:15:00,
2013-05-11 04:20:00,41.2,30.3,29.87,NW,319,0.0,7.0,65,0.00,,,-99.99,Weather View 32 v60,2013-05-11 08:20:00,
2013-05-11 04:25:00,41.2,30.3,29.87,WNW,303,0.0,7.0,65,0.00,,,-99.99,Weather View 32 v60,2013-05-11 08:25:00,
2013-05-11 04:30:00,41.2,30.3,29.87,WNW,303,0.0,7.0,65,0.00,,,-99.99,Weather View 32 v60,2013-05-11 08:30:00,
2013-05-11 04:35:00,41.2,30.3,29.87,WNW,303,0.0,7.0,65,0.00,,,-99.99,Weather View 32 v60,2013-05-11 08:35:00,
2013-05-11 04:40:00,41.2,30.3,29.87,WNW,303,0.0,7.0,65,0.00,,,-99.99,Weather View 32 v60,2013-05-11 08:40:00,
2013-05-11 04:45:00,41.2,30.3,29.87,West,265,3.0,7.0,65,0.00,,,-99.99,Weather View 32 v60,2013-05-11 08:45:00,
2013-05-11 04:50:00,41.2,30.3,29.87,West,281,4.0,7.0,65,0.00,,,-99.99,Weather View 32 v60,2013-05-11 08:50:00,
2013-05-11 04:55:00,41.2,30.7,29.87,WNW,297,6.0,7.0,66,0.00,,,-99.99,Weather View 32 v60,2013-05-11 08:55:00,
2013-05-11 05:00:00,41.2,30.7,29.87,West,272,4.0,7.0,66,0.00,,,-99.99,Weather View 32 v60,2013-05-11 09:00:00,
2013-05-11 05:05:00,41.2,30.7,29.84,WNW,286,4.0,7.0,66,0.00,,,-99.99,Weather View 32 v60,2013-05-11 09:05:00,
2013-05-11 05:10:00,41.0,30.9,29.84,WNW,292,5.0,7.0,67,0.00,,,-99.99,Weather View 32 v60,2013-05-11 09:10:00,
2013-05-11 05:15:00,41.0,30.9,29.84,West,271,4.0,7.0,67,0.00,,,-99.99,Weather View 32 v60,2013-05-11 09:15:00,
2013-05-11 05:20:00,41.0,30.9,29.87,WNW,303,0.0,7.0,67,0.00,,,-99.99,Weather View 32 v60,2013-05-11 09:20:00,
2013-05-11 05:25:00,41.0,30.9,29.87,WNW,295,3.0,7.0,67,0.00,,,-99.99,Weather View 32 v60,2013-05-11 09:25:00,
2013-05-11 05:30:00,41.0,31.2,29.87,WNW,288,4.0,7.0,68,0.00,,,-99.99,Weather View 32 v60,2013-05-11 09:30:00,
2013-05-11 05:35:00,41.0,31.2,29.87,West,280,4.0,7.0,68,0.00,,,-99.99,Weather View 32 v60,2013-05-11 09:35:00,
2013-05-11 05:40:00,41.0,31.2,29.87,WNW,295,4.0,7.0,68,0.00,,,-99.99,Weather View 32 v60,2013-05-11 09:40:00,
2013-05-11 05:45:00,41.0,31.2,29.87,WNW,283,5.0,7.0,68,0.00,,,-99.99,Weather View 32 v60,2013-05-11 09:45:00,
2013-05-11 05:50:00,41.0,31.2,29.87,West,278,4.0,7.0,68,0.00,,,-99.99,Weather View 32 v60,2013-05-11 09:50:00,
2013-05-11 05:55:00,41.0,31.6,29.87,WNW,300,3.0,7.0,69,0.00,,,-99.99,Weather View 32 v60,2013-05-11 09:55:00,
2013-05-11 06:00:00,41.0,31.6,29.87,West,280,4.0,6.0,69,0.00,,,-99.99,Weather View 32 v60,2013-05-11 10:00:00,
2013-05-11 06:10:00,41.0,31.6,29.84,WNW,291,3.0,6.0,69,0.00,,,-99.99,Weather View 32 v60,2013-05-11 10:10:00,
2013-05-11 06:15:00,41.0,31.6,29.84,WNW,286,3.0,6.0,69,0.00,,,-99.99,Weather View 32 v60,2013-05-11 10:15:00,
2013-05-11 06:25:00,41.0,32.0,29.87,WNW,286,5.0,6.0,70,0.00,,,-99.99,Weather View 32 v60,2013-05-11 10:25:00,
2013-05-11 06:35:00,41.2,32.5,29.87,WNW,291,6.0,6.0,71,0.00,,,-99.99,Weather View 32 v60,2013-05-11 10:35:00,
2013-05-11 06:40:00,41.2,32.5,29.87,West,261,6.0,7.0,71,0.00,,,-99.99,Weather View 32 v60,2013-05-11 10:40:00,
2013-05-11 06:45:00,41.2,32.5,29.87,West,273,4.0,7.0,71,0.00,,,-99.99,Weather View 32 v60,2013-05-11 10:45:00,
2013-05-11 06:50:00,41.0,32.3,29.84,West,268,5.0,8.0,71,0.00,,,-99.99,Weather View 32 v60,2013-05-11 10:50:00,
2013-05-11 06:55:00,41.0,32.7,29.84,West,262,4.0,8.0,72,0.00,,,-99.99,Weather View 32 v60,2013-05-11 10:55:00,
2013-05-11 07:00:00,41.0,32.7,29.84,West,277,4.0,8.0,72,0.00,,,-99.99,Weather View 32 v60,2013-05-11 11:00:00,
2013-05-11 07:05:00,41.0,32.7,29.84,West,265,0.0,8.0,72,0.00,,,-99.99,Weather View 32 v60,2013-05-11 11:05:00,
2013-05-11 07:10:00,41.2,32.8,29.84,West,277,5.0,8.0,72,0.00,,,-99.99,Weather View 32 v60,2013-05-11 11:10:00,
2013-05-11 07:20:00,41.2,32.8,29.87,WNW,289,4.0,8.0,72,0.00,,,-99.99,Weather View 32 v60,2013-05-11 11:20:00,
2013-05-11 07:25:00,41.2,32.8,29.87,West,274,3.0,8.0,72,0.00,,,-99.99,Weather View 32 v60,2013-05-11 11:25:00,
2013-05-11 07:30:00,41.2,32.8,29.87,West,279,0.0,8.0,72,0.00,,,-99.99,Weather View 32 v60,2013-05-11 11:30:00,
2013-05-11 07:35:00,41.2,32.8,29.84,West,274,0.0,8.0,72,0.00,,,-99.99,Weather View 32 v60,2013-05-11 11:35:00,
2013-05-11 07:40:00,41.4,33.0,29.84,West,274,0.0,8.0,72,0.00,,,-99.99,Weather View 32 v60,2013-05-11 11:40:00,
2013-05-11 07:45:00,41.4,33.0,29.84,West,272,3.0,8.0,72,0.00,,,-99.99,Weather View 32 v60,2013-05-11 11:45:00,
2013-05-11 07:50:00,41.4,33.0,29.84,WNW,287,0.0,6.0,72,0.00,,,-99.99,Weather View 32 v60,2013-05-11 11:50:00,
2013-05-11 07:55:00,41.5,33.2,29.84,WNW,290,2.0,6.0,72,0.00,,,-99.99,Weather View 32 v60,2013-05-11 11:55:00,
2013-05-11 08:00:00,41.5,33.5,29.84,WNW,290,0.0,6.0,73,0.00,,,-99.99,Weather View 32 v60,2013-05-11 12:00:00,
2013-05-11 08:05:00,41.5,33.5,29.84,WNW,290,0.0,5.0,73,0.00,,,-99.99,Weather View 32 v60,2013-05-11 12:05:00,
2013-05-11 08:15:00,41.7,33.7,29.84,WNW,290,0.0,4.0,73,0.00,,,-99.99,Weather View 32 v60,2013-05-11 12:15:00,
2013-05-11 08:20:00,41.9,33.9,29.84,West,262,5.0,5.0,73,0.00,,,-99.99,Weather View 32 v60,2013-05-11 12:20:00,
2013-05-11 08:25:00,42.1,34.0,29.84,WSW,256,3.0,5.0,73,0.00,,,-99.99,Weather View 32 v60,2013-05-11 12:25:00,
2013-05-11 08:30:00,42.1,34.4,29.84,West,271,6.0,6.0,74,0.00,,,-99.99,Weather View 32 v60,2013-05-11 12:30:00,
2013-05-11 08:35:00,42.3,34.6,29.84,WSW,250,3.0,6.0,74,0.00,,,-99.99,Weather View 32 v60,2013-05-11 12:35:00,
2013-05-11 08:40:00,42.4,35.1,29.84,WSW,246,3.0,6.0,75,0.00,,,-99.99,Weather View 32 v60,2013-05-11 12:40:00,
2013-05-11 08:45:00,42.8,35.4,29.84,SW,232,0.0,6.0,75,0.00,,,-99.99,Weather View 32 v60,2013-05-11 12:45:00,
2013-05-11 08:50:00,42.8,35.4,29.84,West,279,4.0,6.0,75,0.00,,,-99.99,Weather View 32 v60,2013-05-11 12:50:00,
2013-05-11 08:55:00,43.0,35.6,29.84,WSW,243,6.0,6.0,75,0.00,,,-99.99,Weather View 32 v60,2013-05-11 12:55:00,
2013-05-11 09:00:00,43.3,36.3,29.84,West,264,5.0,6.0,76,0.00,,,-99.99,Weather View 32 v60,2013-05-11 13:00:00,
2013-05-11 09:05:00,43.5,36.4,29.84,West,272,5.0,7.0,76,0.00,,,-99.99,Weather View 32 v60,2013-05-11 13:05:00,
2013-05-11 09:15:00,44.1,37.3,29.84,WSW,237,4.0,9.0,77,0.00,,,-99.99,Weather View 32 v60,2013-05-11 13:15:00,
2013-05-11 09:20:00,44.2,37.5,29.84,WNW,295,6.0,9.0,77,0.00,,,-99.99,Weather View 32 v60,2013-05-11 13:20:00,
2013-05-11 09:25:00,44.6,37.8,29.84,West,274,6.0,9.0,77,0.00,,,-99.99,Weather View 32 v60,2013-05-11 13:25:00,
2013-05-11 09:30:00,44.8,38.0,29.84,WSW,239,4.0,9.0,77,0.00,,,-99.99,Weather View 32 v60,2013-05-11 13:30:00,
2013-05-11 09:35:00,45.1,38.3,29.81,West,262,6.0,10.0,77,0.00,,,-99.99,Weather View 32 v60,2013-05-11 13:35:00,
2013-05-11 09:40:00,45.3,38.5,29.81,WSW,242,8.0,10.0,77,0.00,,,-99.99,Weather View 32 v60,2013-05-11 13:40:00,
2013-05-11 09:45:00,45.5,38.0,29.81,NW,307,6.0,11.0,75,0.00,,,-99.99,Weather View 32 v60,2013-05-11 13:45:00,
2013-05-11 09:50:00,45.9,38.0,29.81,WNW,302,5.0,11.0,74,0.00,,,-99.99,Weather View 32 v60,2013-05-11 13:50:00,
2013-05-11 09:55:00,46.0,37.9,29.81,West,281,6.0,11.0,73,0.00,,,-99.99,Weather View 32 v60,2013-05-11 13:55:00,
2013-05-11 10:05:00,46.4,37.9,29.81,West,268,6.0,11.0,72,0.00,,,-99.99,Weather View 32 v60,2013-05-11 14:05:00,
2013-05-11 10:10:00,46.6,37.7,29.81,West,267,5.0,11.0,71,0.00,,,-99.99,Weather View 32 v60,2013-05-11 14:10:00,
2013-05-11 10:15:00,46.8,37.5,29.81,NW,308,3.0,11.0,70,0.00,,,-99.99,Weather View 32 v60,2013-05-11 14:15:00,
2013-05-11 10:20:00,46.8,37.5,29.81,WSW,250,4.0,11.0,70,0.00,,,-99.99,Weather View 32 v60,2013-05-11 14:20:00,
2013-05-11 10:25:00,46.9,37.3,29.81,West,277,6.0,11.0,69,0.00,,,-99.99,Weather View 32 v60,2013-05-11 14:25:00,
2013-05-11 10:30:00,47.1,37.1,29.81,West,278,6.0,11.0,68,0.00,,,-99.99,Weather View 32 v60,2013-05-11 14:30:00,
2013-05-11 10:35:00,47.3,37.3,29.81,WNW,285,6.0,11.0,68,0.00,,,-99.99,Weather View 32 v60,2013-05-11 14:35:00,
2013-05-11 10:40:00,47.5,37.1,29.81,WSW,252,2.0,11.0,67,0.00,,,-99.99,Weather View 32 v60,2013-05-11 14:40:00,
2013-05-11 10:50:00,48.0,37.6,29.78,West,260,4.0,9.0,67,0.00,,,-99.99,Weather View 32 v60,2013-05-11 14:50:00,
2013-05-11 10:55:00,48.2,37.7,29.78,South,170,4.0,9.0,67,0.00,,,-99.99,Weather View 32 v60,2013-05-11 14:55:00,
2013-05-11 11:00:00,48.7,37.9,29.78,SSW,206,3.0,9.0,66,0.00,,,-99.99,Weather View 32 v60,2013-05-11 15:00:00,
2013-05-11 11:05:00,48.9,37.7,29.78,West,263,4.0,8.0,65,0.00,,,-99.99,Weather View 32 v60,2013-05-11 15:05:00,
2013-05-11 11:10:00,49.3,37.6,29.78,South,187,2.0,8.0,64,0.00,,,-99.99,Weather View 32 v60,2013-05-11 15:10:00,
2013-05-11 11:15:00,49.6,37.5,29.78,South,191,3.0,8.0,63,0.00,,,-99.99,Weather View 32 v60,2013-05-11 15:15:00,
2013-05-11 11:20:00,50.0,37.5,29.78,WSW,241,0.0,8.0,62,0.00,,,-99.99,Weather View 32 v60,2013-05-11 15:20:00,
2013-05-11 11:27:00,50.4,37.4,29.78,SSE,160,4.0,8.0,61,0.00,,,-99.99,Weather View 32 v60,2013-05-11 15:27:00,
2013-05-11 11:35:00,51.1,36.8,29.75,West,265,3.0,9.0,58,0.00,,,-99.99,Weather View 32 v60,2013-05-11 15:35:00,
2013-05-11 11:40:00,51.1,36.8,29.75,South,187,3.0,9.0,58,0.00,,,-99.99,Weather View 32 v60,2013-05-11 15:40:00,
2013-05-11 11:45:00,51.3,36.5,29.75,SW,236,3.0,9.0,57,0.00,,,-99.99,Weather View 32 v60,2013-05-11 15:45:00,
2013-05-11 11:50:00,51.6,36.9,29.75,SSW,206,4.0,9.0,57,0.00,,,-99.99,Weather View 32 v60,2013-05-11 15:50:00,
2013-05-11 11:55:00,52.0,36.7,29.75,SW,226,7.0,9.0,56,0.00,,,-99.99,Weather View 32 v60,2013-05-11 15:55:00,
2013-05-11 12:00:00,52.2,36.5,29.75,SW,235,4.0,9.0,55,0.00,,,-99.99,Weather View 32 v60,2013-05-11 16:00:00,
2013-05-11 12:05:00,52.5,36.8,29.75,SSW,212,3.0,9.0,55,0.00,,,-99.99,Weather View 32 v60,2013-05-11 16:05:00,
2013-05-11 12:15:00,53.1,35.9,29.75,SSW,195,3.0,9.0,52,0.00,,,-99.99,Weather View 32 v60,2013-05-11 16:15:00,
2013-05-11 12:20:00,53.2,35.0,29.75,SSE,156,3.0,9.0,50,0.00,,,-99.99,Weather View 32 v60,2013-05-11 16:20:00,
2013-05-11 12:25:00,53.4,35.2,29.75,South,177,4.0,9.0,50,0.00,,,-99.99,Weather View 32 v60,2013-05-11 16:25:00,
2013-05-11 12:30:00,53.6,34.3,29.75,SW,215,2.0,9.0,48,0.00,,,-99.99,Weather View 32 v60,2013-05-11 16:30:00,
2013-05-11 12:35:00,53.8,34.5,29.72,SSE,165,4.0,9.0,48,0.00,,,-99.99,Weather View 32 v60,2013-05-11 16:35:00,
2013-05-11 12:40:00,54.0,34.1,29.72,SSW,212,3.0,9.0,47,0.00,,,-99.99,Weather View 32 v60,2013-05-11 16:40:00,
2013-05-11 12:45:00,54.1,33.8,29.72,SW,231,4.0,9.0,46,0.00,,,-99.99,Weather View 32 v60,2013-05-11 16:45:00,
2013-05-11 12:50:00,54.3,33.9,29.72,SSE,151,5.0,9.0,46,0.00,,,-99.99,Weather View 32 v60,2013-05-11 16:50:00,
2013-05-11 12:55:00,54.5,34.6,29.72,WSW,237,4.0,9.0,47,0.00,,,-99.99,Weather View 32 v60,2013-05-11 16:55:00,
2013-05-11 13:00:00,54.5,34.6,29.72,WSW,243,8.0,8.0,47,0.00,,,-99.99,Weather View 32 v60,2013-05-11 17:00:00,
2013-05-11 13:10:00,54.5,34.1,29.72,WSW,253,9.0,9.0,46,0.00,,,-99.99,Weather View 32 v60,2013-05-11 17:10:00,
2013-05-11 13:15:00,54.5,34.1,29.72,SSW,193,4.0,9.0,46,0.00,,,-99.99,Weather View 32 v60,2013-05-11 17:15:00,
2013-05-11 13:25:00,54.7,34.3,29.72,SSE,158,3.0,9.0,46,0.00,,,-99.99,Weather View 32 v60,2013-05-11 17:25:00,
2013-05-11 13:30:00,54.9,34.4,29.72,SSW,206,3.0,9.0,46,0.00,,,-99.99,Weather View 32 v60,2013-05-11 17:30:00,
2013-05-11 13:35:00,55.2,33.6,29.72,West,280,6.0,9.0,44,0.00,,,-99.99,Weather View 32 v60,2013-05-11 17:35:00,
2013-05-11 13:40:00,55.4,33.2,29.72,SW,232,11.0,12.0,43,0.00,,,-99.99,Weather View 32 v60,2013-05-11 17:40:00,
2013-05-11 13:45:00,55.4,33.2,29.72,West,270,14.0,14.0,43,0.00,,,-99.99,Weather View 32 v60,2013-05-11 17:45:00,
2013-05-11 13:50:00,55.6,32.8,29.69,SE,134,3.0,14.0,42,0.00,,,-99.99,Weather View 32 v60,2013-05-11 17:50:00,
2013-05-11 13:55:00,55.6,32.2,29.69,WSW,247,3.0,14.0,41,0.00,,,-99.99,Weather View 32 v60,2013-05-11 17:55:00,
2013-05-11 14:05:00,55.8,32.4,29.69,West,259,11.0,15.0,41,0.00,,,-99.99,Weather View 32 v60,2013-05-11 18:05:00,
2013-05-11 14:10:00,55.9,32.5,29.69,WSW,255,10.0,15.0,41,0.00,,,-99.99,Weather View 32 v60,2013-05-11 18:10:00,
2013-05-11 14:15:00,55.9,31.9,29.69,WSW,242,3.0,15.0,40,0.00,,,-99.99,Weather View 32 v60,2013-05-11 18:15:00,
2013-05-11 14:20:00,56.1,32.7,29.69,WSW,247,4.0,15.0,41,0.00,,,-99.99,Weather View 32 v60,2013-05-11 18:20:00,
2013-05-11 14:25:00,56.1,31.4,29.69,NNE,18,2.0,15.0,39,0.00,,,-99.99,Weather View 32 v60,2013-05-11 18:25:00,
2013-05-11 14:30:00,56.1,31.4,29.69,ESE,120,3.0,15.0,39,0.00,,,-99.99,Weather View 32 v60,2013-05-11 18:30:00,
2013-05-11 14:35:00,55.9,31.3,29.69,WSW,242,6.0,15.0,39,0.00,,,-99.99,Weather View 32 v60,2013-05-11 18:35:00,
2013-05-11 14:40:00,55.9,31.9,29.69,SW,215,6.0,15.0,40,0.00,,,-99.99,Weather View 32 v60,2013-05-11 18:40:00,
2013-05-11 14:50:00,55.2,32.5,29.69,WSW,244,6.0,15.0,42,0.00,,,-99.99,Weather View 32 v60,2013-05-11 18:50:00,
2013-05-11 14:55:00,54.7,33.2,29.69,WSW,252,6.0,15.0,44,0.00,,,-99.99,Weather View 32 v60,2013-05-11 18:55:00,
2013-05-11 15:05:00,54.0,33.6,29.69,WSW,255,3.0,15.0,46,0.00,,,-99.99,Weather View 32 v60,2013-05-11 19:05:00,
2013-05-11 15:10:00,53.6,33.3,29.69,South,180,0.0,13.0,46,0.00,,,-99.99,Weather View 32 v60,2013-05-11 19:10:00,
2013-05-11 15:15:00,53.4,33.7,29.69,SW,232,4.0,13.0,47,0.00,,,-99.99,Weather View 32 v60,2013-05-11 19:15:00,
2013-05-11 15:20:00,53.1,33.9,29.69,SW,226,4.0,13.0,48,0.00,,,-99.99,Weather View 32 v60,2013-05-11 19:20:00,
2013-05-11 15:25:00,52.9,34.2,29.69,SSW,194,4.0,13.0,49,0.00,,,-99.99,Weather View 32 v60,2013-05-11 19:25:00,
2013-05-11 15:30:00,52.7,34.0,29.69,SW,227,0.0,13.0,49,0.00,,,-99.99,Weather View 32 v60,2013-05-11 19:30:00,
2013-05-11 15:35:00,52.7,35.0,29.67,WSW,254,3.0,13.0,51,0.00,,,-99.99,Weather View 32 v60,2013-05-11 19:35:00,
2013-05-11 15:40:00,52.7,35.0,29.67,SSW,197,5.0,13.0,51,0.00,,,-99.99,Weather View 32 v60,2013-05-11 19:40:00,
2013-05-11 15:50:00,52.5,35.4,29.67,SW,221,3.0,13.0,52,0.00,,,-99.99,Weather View 32 v60,2013-05-11 19:50:00,
2013-05-11 15:55:00,52.5,35.4,29.67,SW,226,3.0,10.0,52,0.00,,,-99.99,Weather View 32 v60,2013-05-11 19:55:00,
2013-05-11 16:00:00,52.3,35.2,29.67,South,181,4.0,10.0,52,0.00,,,-99.99,Weather View 32 v60,2013-05-11 20:00:00,
2013-05-11 16:05:00,52.3,35.2,29.67,South,184,4.0,10.0,52,0.00,,,-99.99,Weather View 32 v60,2013-05-11 20:05:00,
2013-05-11 16:10:00,52.2,35.5,29.67,SW,230,4.0,10.0,53,0.00,,,-99.99,Weather View 32 v60,2013-05-11 20:10:00,
2013-05-11 16:15:00,52.2,36.0,29.67,WSW,258,3.0,10.0,54,0.00,,,-99.99,Weather View 32 v60,2013-05-11 20:15:00,
2013-05-11 16:20:00,52.0,35.8,29.67,West,265,5.0,10.0,54,0.00,,,-99.99,Weather View 32 v60,2013-05-11 20:20:00,
2013-05-11 16:25:00,52.0,36.7,29.67,SW,230,8.0,13.0,56,0.00,,,-99.99,Weather View 32 v60,2013-05-11 20:25:00,
2013-05-11 16:30:00,51.6,37.3,29.67,WNW,287,11.0,20.0,58,0.00,,,-99.99,Weather View 32 v60,2013-05-11 20:30:00,
2013-05-11 16:40:00,49.5,29.0,29.69,NW,324,10.0,35.0,45,0.00,,,-99.99,Weather View 32 v60,2013-05-11 20:40:00,
2013-05-11 16:45:00,47.8,29.1,29.69,NW,305,8.0,35.0,48,0.00,,,-99.99,Weather View 32 v60,2013-05-11 20:45:00,
2013-05-11 16:50:00,46.8,28.1,29.72,WNW,285,11.0,35.0,48,0.00,,,-99.99,Weather View 32 v60,2013-05-11 20:50:00,
2013-05-11 16:55:00,45.9,27.8,29.72,NE,36,5.0,35.0,49,0.00,,,-99.99,Weather View 32 v60,2013-05-11 20:55:00,
2013-05-11 17:00:00,44.6,24.5,29.72,NNW,348,6.0,35.0,45,0.00,,,-99.99,Weather View 32 v60,2013-05-11 21:00:00,
2013-05-11 17:05:00,43.5,25.1,29.75,WNW,296,8.0,35.0,48,0.00,,,-99.99,Weather View 32 v60,2013-05-11 21:05:00,
2013-05-11 17:10:00,42.6,24.3,29.75,NNW,332,8.0,35.0,48,0.00,,,-99.99,Weather View 32 v60,2013-05-11 21:10:00,
2013-05-11 17:15:00,41.9,24.6,29.75,NNW,346,6.0,35.0,50,0.00,,,-99.99,Weather View 32 v60,2013-05-11 21:15:00,
2013-05-11 17:25:00,41.2,25.8,29.75,WNW,303,5.0,35.0,54,0.00,,,-99.99,Weather View 32 v60,2013-05-11 21:25:00,
2013-05-11 17:30:00,40.8,25.9,29.75,NW,311,6.0,35.0,55,0.00,,,-99.99,Weather View 32 v60,2013-05-11 21:30:00,
2013-05-11 17:35:00,40.6,26.6,29.78,NNW,334,5.0,35.0,57,0.00,,,-99.99,Weather View 32 v60,2013-05-11 21:35:00,
2013-05-11 17:40:00,40.1,23.9,29.78,WNW,294,11.0,21.0,52,0.00,,,-99.99,Weather View 32 v60,2013-05-11 21:40:00,
2013-05-11 17:45:00,39.7,23.5,29.78,WNW,297,10.0,21.0,52,0.00,,,-99.99,Weather View 32 v60,2013-05-11 21:45:00,
2013-05-11 17:50:00,39.4,23.7,29.78,NW,324,5.0,21.0,53,0.00,,,-99.99,Weather View 32 v60,2013-05-11 21:50:00,
2013-05-11 17:55:00,39.4,24.5,29.78,West,278,9.0,21.0,55,0.00,,,-99.99,Weather View 32 v60,2013-05-11 21:55:00,
2013-05-11 18:00:00,39.4,24.1,29.78,North,353,6.0,21.0,54,0.00,,,-99.99,Weather View 32 v60,2013-05-11 22:00:00,
2013-05-11 18:05:00,39.4,22.7,29.81,North,353,6.0,21.0,51,0.00,,,-99.99,Weather View 32 v60,2013-05-11 22:05:00,
2013-05-11 18:10:00,39.6,23.4,29.81,NW,315,10.0,21.0,52,0.00,,,-99.99,Weather View 32 v60,2013-05-11 22:10:00,
2013-05-11 18:20:00,39.7,21.1,29.81,NNW,327,8.0,21.0,47,0.00,,,-99.99,Weather View 32 v60,2013-05-11 22:20:00,
2013-05-11 18:25:00,39.7,21.6,29.81,NW,317,8.0,20.0,48,0.00,,,-99.99,Weather View 32 v60,2013-05-11 22:25:00,
2013-05-11 18:30:00,39.9,21.8,29.81,NW,312,8.0,20.0,48,0.00,,,-99.99,Weather View 32 v60,2013-05-11 22:30:00,
2013-05-11 18:35:00,40.3,22.6,29.81,WNW,303,13.0,20.0,49,0.00,,,-99.99,Weather View 32 v60,2013-05-11 22:35:00,
2013-05-11 18:40:00,40.3,20.6,29.81,NNW,334,9.0,20.0,45,0.00,,,-99.99,Weather View 32 v60,2013-05-11 22:40:00,
2013-05-11 18:45:00,40.5,20.2,29.81,NW,315,9.0,20.0,44,0.00,,,-99.99,Weather View 32 v60,2013-05-11 22:45:00,
2013-05-11 18:50:00,40.6,20.4,29.84,WNW,299,11.0,20.0,44,0.00,,,-99.99,Weather View 32 v60,2013-05-11 22:50:00,
2013-05-11 19:00:00,40.6,20.4,29.84,WNW,290,8.0,20.0,44,0.00,,,-99.99,Weather View 32 v60,2013-05-11 23:00:00,
2013-05-11 19:05:00,40.6,20.9,29.84,WNW,283,14.0,20.0,45,0.00,,,-99.99,Weather View 32 v60,2013-05-11 23:05:00,
2013-05-11 19:10:00,40.6,20.9,29.84,NW,307,11.0,20.0,45,0.00,,,-99.99,Weather View 32 v60,2013-05-11 23:10:00,
2013-05-11 19:15:00,40.6,20.9,29.84,WNW,302,5.0,20.0,45,0.00,,,-99.99,Weather View 32 v60,2013-05-11 23:15:00,
2013-05-11 19:20:00,40.8,20.6,29.84,NW,304,7.0,20.0,44,0.00,,,-99.99,Weather View 32 v60,2013-05-11 23:20:00,
2013-05-11 19:25:00,40.8,20.6,29.84,NW,313,6.0,20.0,44,0.00,,,-99.99,Weather View 32 v60,2013-05-11 23:25:00,
2013-05-11 19:30:00,41.0,19.6,29.84,NW,304,6.0,20.0,42,0.00,,,-99.99,Weather View 32 v60,2013-05-11 23:30:00,
2013-05-11 19:35:00,41.2,20.4,29.84,West,277,13.0,19.0,43,0.00,,,-99.99,Weather View 32 v60,2013-05-11 23:35:00,
2013-05-11 19:40:00,41.2,20.4,29.84,WNW,292,6.0,17.0,43,0.00,,,-99.99,Weather View 32 v60,2013-05-11 23:40:00,
2013-05-11 19:50:00,41.5,20.1,29.84,NW,305,4.0,17.0,42,0.00,,,-99.99,Weather View 32 v60,2013-05-11 23:50:00,
2013-05-11 19:55:00,41.5,20.7,29.84,NW,304,9.0,17.0,43,0.00,,,-99.99,Weather View 32 v60,2013-05-11 23:55:00,
2013-05-11 20:00:00,41.5,20.1,29.84,WNW,298,6.0,17.0,42,0.00,,,-99.99,Weather View 32 v60,2013-05-12 00:00:00,
2013-05-11 20:05:00,41.7,20.3,29.84,WNW,292,7.0,17.0,42,0.00,,,-99.99,Weather View 32 v60,2013-05-12 00:05:00,
2013-05-11 20:15:00,41.7,19.7,29.84,NW,305,12.0,17.0,41,0.00,,,-99.99,Weather View 32 v60,2013-05-12 00:15:00,
2013-05-11 20:20:00,41.7,19.7,29.84,WNW,292,8.0,17.0,41,0.00,,,-99.99,Weather View 32 v60,2013-05-12 00:20:00,
2013-05-11 20:25:00,41.5,20.1,29.84,WNW,283,8.0,17.0,42,0.00,,,-99.99,Weather View 32 v60,2013-05-12 00:25:00,
2013-05-11 20:32:00,41.5,20.1,29.84,West,266,8.0,17.0,42,0.00,,,-99.99,Weather View 32 v60,2013-05-12 00:32:00,
2013-05-11 20:40:00,41.2,19.8,29.84,West,275,6.0,13.0,42,0.00,,,-99.99,Weather View 32 v60,2013-05-12 00:40:00,
2013-05-11 20:45:00,41.0,19.6,29.84,WNW,285,4.0,13.0,42,0.00,,,-99.99,Weather View 32 v60,2013-05-12 00:45:00,
2013-05-11 20:55:00,40.6,19.9,29.84,West,274,3.0,13.0,43,0.00,,,-99.99,Weather View 32 v60,2013-05-12 00:55:00,
2013-05-11 21:00:00,40.6,19.9,29.84,West,267,4.0,13.0,43,0.00,,,-99.99,Weather View 32 v60,2013-05-12 01:00:00,
2013-05-11 21:05:00,40.5,20.2,29.84,WSW,238,4.0,13.0,44,0.00,,,-99.99,Weather View 32 v60,2013-05-12 01:05:00,
2013-05-11 21:15:00,40.3,20.1,29.84,West,261,3.0,13.0,44,0.00,,,-99.99,Weather View 32 v60,2013-05-12 01:15:00,
2013-05-11 21:20:00,40.1,19.9,29.84,West,279,4.0,13.0,44,0.00,,,-99.99,Weather View 32 v60,2013-05-12 01:20:00,
2013-05-11 21:25:00,39.9,20.3,29.84,WSW,253,5.0,13.0,45,0.00,,,-99.99,Weather View 32 v60,2013-05-12 01:25:00,
2013-05-11 21:33:00,39.9,20.3,29.84,West,268,4.0,13.0,45,0.00,,,-99.99,Weather View 32 v60,2013-05-12 01:33:00,
2013-05-11 21:40:00,39.6,19.9,29.84,WSW,257,3.0,7.0,45,0.00,,,-99.99,Weather View 32 v60,2013-05-12 01:40:00,
2013-05-11 21:45:00,39.6,19.9,29.84,WSW,252,4.0,6.0,45,0.00,,,-99.99,Weather View 32 v60,2013-05-12 01:45:00,
2013-05-11 21:55:00,39.4,20.3,29.84,WSW,246,5.0,6.0,46,0.00,,,-99.99,Weather View 32 v60,2013-05-12 01:55:00,
2013-05-11 22:00:00,39.4,20.3,29.84,WSW,256,3.0,6.0,46,0.00,,,-99.99,Weather View 32 v60,2013-05-12 02:00:00,
2013-05-11 22:05:00,39.4,20.8,29.84,WSW,239,5.0,6.0,47,0.00,,,-99.99,Weather View 32 v60,2013-05-12 02:05:00,
2013-05-11 22:15:00,39.2,20.6,29.84,West,273,4.0,7.0,47,0.00,,,-99.99,Weather View 32 v60,2013-05-12 02:15:00,
2013-05-11 22:20:00,39.2,21.1,29.84,West,279,3.0,7.0,48,0.00,,,-99.99,Weather View 32 v60,2013-05-12 02:20:00,
2013-05-11 22:25:00,39.0,21.0,29.84,West,261,4.0,7.0,48,0.00,,,-99.99,Weather View 32 v60,2013-05-12 02:25:00,
2013-05-11 22:33:00,39.0,21.0,29.84,West,278,3.0,7.0,48,0.00,,,-99.99,Weather View 32 v60,2013-05-12 02:33:00,
2013-05-11 22:40:00,38.8,21.3,29.84,WSW,237,4.0,7.0,49,0.00,,,-99.99,Weather View 32 v60,2013-05-12 02:40:00,
2013-05-11 22:45:00,38.8,21.3,29.84,WSW,242,4.0,7.0,49,0.00,,,-99.99,Weather View 32 v60,2013-05-12 02:45:00,
2013-05-11 22:50:00,38.7,21.1,29.84,WSW,257,5.0,8.0,49,0.00,,,-99.99,Weather View 32 v60,2013-05-12 02:50:00,
2013-05-11 23:00:00,38.7,21.1,29.84,West,272,5.0,8.0,49,0.00,,,-99.99,Weather View 32 v60,2013-05-12 03:00:00,
2013-05-11 23:05:00,38.7,21.1,29.84,West,278,4.0,8.0,49,0.00,,,-99.99,Weather View 32 v60,2013-05-12 03:05:00,
2013-05-11 23:10:00,38.5,21.0,29.84,West,275,5.0,8.0,49,0.00,,,-99.99,Weather View 32 v60,2013-05-12 03:10:00,
2013-05-11 23:20:00,38.5,21.0,29.84,WSW,258,8.0,8.0,49,0.00,,,-99.99,Weather View 32 v60,2013-05-12 03:20:00,
2013-05-11 23:25:00,38.5,21.0,29.84,WSW,243,6.0,8.0,49,0.00,,,-99.99,Weather View 32 v60,2013-05-12 03:25:00,
2013-05-11 23:30:00,38.5,21.0,29.84,West,261,5.0,8.0,49,0.00,,,-99.99,Weather View 32 v60,2013-05-12 03:30:00,
2013-05-11 23:40:00,38.5,21.0,29.84,WSW,256,4.0,9.0,49,0.00,,,-99.99,Weather View 32 v60,2013-05-12 03:40:00,
2013-05-11 23:45:00,38.5,21.0,29.84,SW,233,6.0,9.0,49,0.00,,,-99.99,Weather View 32 v60,2013-05-12 03:45:00,
2013-05-11 23:50:00,38.3,20.8,29.84,WSW,253,5.0,9.0,49,0.00,,,-99.99,Weather View 32 v60,2013-05-12 03:50:00,